{"data":{"norad_id":58004,"epoch":"2026-05-24T23:00:09.463104Z","epoch_age_seconds":75656,"freshness":"FRESH","line1":"1 58004U 23153P   26144.95844286  .00001002  00000+0  45953-4 0  9996","line2":"2 58004  43.0055 356.0747 0001302 253.8165 106.2543 15.27576520146556","mean_motion":15.2757652,"eccentricity":0.0001302,"inclination_deg":43.0055,"raan_deg":356.0747,"arg_perigee_deg":253.8165,"mean_anomaly_deg":106.2543,"bstar":4.5953e-5,"rev_number":14655,"period_min":94.266963464455,"perigee_km":482.16618864492,"apogee_km":483.9528442178,"semimajor_km":6861.1965164314,"source":"CELESTRAK","updated_at":"2026-05-25T13:38:18.491912Z"}}